Location: Powder Track
(41.8531°N, 72.3584°W)
Time: 23:46:30
(UTC+00:00)

Vanguard 1 Rocket - Pass Details

Date: 15 August 2021
Orbit: 650 x 4226 km, 34.3° (Epoch: 16 September)

Event Time Altitude Azimuth Distance (km) Brightness Sun altitude
Rises 13:51:57 0° 264° (W) 8,435 11.9 41.8°
Reaches altitude 10° 13:57:52 10° 263° (W) 7,431 11.7 42.8°
Maximum altitude 14:23:02 68° 187° (S) 3,527 11.3 47.0°
Drops below altitude 10° 14:38:02 10° 109° (ESE) 4,779 11.9 49.4°
Sets 14:40:55 0° 106° (ESE) 5,421 12.0 49.9°
